Weather in Borodinskoe

Russia / Saint-Petersburg and Leningrad Oblast     61°01′09″N   29°24′23″E
temp.,
°C
wind,
m/s
gust,
m/s
humid.,
%
clouds,
%
prec.,
mm/h
press.,
hPa
HPBL,
m
16 june, wed
wed1600:00+10wsw26751 0.1 1010116
03:00+8wsw29800 0.1 1012187
06:00+11w311715 0.0 1013484
09:00+16wnw511445 0.0 10141504
12:00+18wnw6103369 0.0 10151891
15:00+19wnw51128100 0.0 10161869
18:00+18wnw473274 0.0 10161341
21:00+15w114999 0.0 101712
17 june, thu
thu1700:00+11sw23815 0.0 101843
03:00+9wsw229413 0.0 101920
06:00+12nw127335 0.0 1021105
09:00+18w23468 0.0 1022855
12:00+21wsw233798 0.0 10221606
15:00+23sw44395 0.0 10221633
18:00+21sw46405 0.0 1023859
21:00+16sw395891 0.0 1023289
18 june, fri
fri1800:00+12sw287013 0.0 1023145
03:00+11ssw27744 0.0 1022118
06:00+14sw297774 0.0 1022272
09:00+21sw51052100 0.0 1020819
12:00+23sw6946100 0.0 10201205
15:00+24sw7114433 0.0 10191332
18:00+24sw512455 0.0 10181318
21:00+20sw412605 0.0 1018588
19 june, sat
sat1900:00+15sw312760 0.0 1019278
03:00+14sw311830 0.0 1018213
06:00+17sw312800 0.0 1019391
09:00+23sw510540 0.0 1018759
12:00+26sw69503 0.0 10181322
15:00+27sw69500 0.0 10181607
18:00+27sw510524 0.0 10171810
21:00+23sw310700 0.0 1017422
20 june, sun
sun2000:00+21ssw3116598 0.0 1017368
03:00+18ssw310791 0.0 1016246
06:00+19ssw312780 0.0 1016380
09:00+25sw596148 0.0 1015910
12:00+27sw6105277 0.0 10151546
15:00+28sw61050100 0.0 10141440
18:00+23sw61374100 0.1 1014805
21:00+21sw5128122 0.2 1014503